Time,TemperatureF,DewpointF,PressureIn,WindDirection,WindDirectionDegrees,WindSpeedMPH,WindSpeedGustMPH,Humidity,HourlyPrecipIn,Conditions,Clouds,dailyrainin,SoftwareType,DateUTC
2013-09-30 00:00:00,71.7,52.6,29.90,NNW,338,0.0,0.0,51,0.00,,,0.00,WUHU216HW,2013-09-30 05:00:00,
2013-09-30 00:05:00,71.6,52.9,29.90,NNW,338,0.0,0.0,52,0.00,,,0.00,WUHU216HW,2013-09-30 05:05:00,
2013-09-30 00:10:00,71.4,52.3,29.90,NNW,338,0.0,0.0,51,0.00,,,0.00,WUHU216HW,2013-09-30 05:10:00,
2013-09-30 00:15:00,71.4,52.8,29.90,NNW,338,0.0,0.0,52,0.00,,,0.00,WUHU216HW,2013-09-30 05:15:00,
2013-09-30 00:20:00,71.4,52.8,29.90,NNW,338,0.0,0.0,52,0.00,,,0.00,WUHU216HW,2013-09-30 05:20:00,
2013-09-30 00:25:00,71.2,52.6,29.90,NNW,338,0.0,0.0,52,0.00,,,0.00,WUHU216HW,2013-09-30 05:25:00,
2013-09-30 00:30:00,71.2,52.6,29.89,NNW,338,0.0,0.0,52,0.00,,,0.00,WUHU216HW,2013-09-30 05:30:00,
2013-09-30 00:35:00,71.2,52.6,29.89,NNW,338,0.0,0.0,52,0.00,,,0.00,WUHU216HW,2013-09-30 05:35:00,
2013-09-30 00:40:00,71.2,52.6,29.89,NNW,338,0.0,0.0,52,0.00,,,0.00,WUHU216HW,2013-09-30 05:40:00,
2013-09-30 00:45:00,71.0,52.5,29.89,NNW,338,0.0,0.0,52,0.00,,,0.00,WUHU216HW,2013-09-30 05:45:00,
2013-09-30 00:50:00,71.0,53.0,29.89,NNW,338,0.0,0.0,53,0.00,,,0.00,WUHU216HW,2013-09-30 05:50:00,
2013-09-30 00:55:00,70.8,52.8,29.89,NNW,338,0.0,0.0,53,0.00,,,0.00,WUHU216HW,2013-09-30 05:55:00,
2013-09-30 01:00:00,70.7,53.6,29.88,NNW,338,0.0,0.0,55,0.00,,,0.00,WUHU216HW,2013-09-30 06:00:00,
2013-09-30 01:05:00,70.5,53.5,29.88,NNW,338,0.0,0.0,55,0.00,,,0.00,WUHU216HW,2013-09-30 06:05:00,
2013-09-30 01:10:00,70.3,53.3,29.88,NNW,338,0.0,0.0,55,0.00,,,0.00,WUHU216HW,2013-09-30 06:10:00,
2013-09-30 01:15:00,70.3,53.8,29.88,NNW,338,0.0,0.0,56,0.00,,,0.00,WUHU216HW,2013-09-30 06:15:00,
2013-09-30 01:20:00,70.1,53.2,29.89,NNW,338,0.0,0.0,55,0.00,,,0.00,WUHU216HW,2013-09-30 06:20:00,
2013-09-30 01:25:00,69.9,53.0,29.88,NNW,338,0.0,0.0,55,0.00,,,0.00,WUHU216HW,2013-09-30 06:25:00,
2013-09-30 01:31:00,70.1,53.2,29.89,NNW,338,0.0,0.0,55,0.00,,,0.00,WUHU216HW,2013-09-30 06:31:00,
2013-09-30 01:36:00,70.1,53.7,29.88,NNW,338,0.0,0.0,56,0.00,,,0.00,WUHU216HW,2013-09-30 06:36:00,
2013-09-30 01:41:00,70.1,53.7,29.88,NNW,338,0.0,0.0,56,0.00,,,0.00,WUHU216HW,2013-09-30 06:41:00,
2013-09-30 01:46:00,69.9,54.0,29.88,NNW,338,0.0,0.0,57,0.00,,,0.00,WUHU216HW,2013-09-30 06:46:00,
2013-09-30 01:51:00,69.9,54.0,29.88,NNW,338,0.0,0.0,57,0.00,,,0.00,WUHU216HW,2013-09-30 06:51:00,
2013-09-30 01:56:00,69.9,54.0,29.88,NNW,338,0.0,0.0,57,0.00,,,0.00,WUHU216HW,2013-09-30 06:56:00,
2013-09-30 02:01:00,69.9,54.0,29.88,NNW,338,0.0,0.0,57,0.00,,,0.00,WUHU216HW,2013-09-30 07:01:00,
2013-09-30 02:06:00,69.6,54.7,29.88,NNW,338,0.0,0.0,59,0.00,,,0.00,WUHU216HW,2013-09-30 07:06:00,
2013-09-30 02:11:00,69.4,55.0,29.88,NNW,338,0.0,0.0,60,0.00,,,0.00,WUHU216HW,2013-09-30 07:11:00,
2013-09-30 02:16:00,69.2,54.8,29.88,NNW,338,0.0,0.0,60,0.00,,,0.00,WUHU216HW,2013-09-30 07:16:00,
2013-09-30 02:21:00,68.7,54.7,29.88,NNW,338,0.0,0.0,61,0.00,,,0.00,WUHU216HW,2013-09-30 07:21:00,
2013-09-30 02:26:00,68.7,55.1,29.88,NNW,338,0.0,0.0,62,0.00,,,0.00,WUHU216HW,2013-09-30 07:26:00,
2013-09-30 02:31:00,68.5,55.4,29.88,NNW,338,0.0,0.0,63,0.00,,,0.00,WUHU216HW,2013-09-30 07:31:00,
2013-09-30 02:36:00,68.5,55.4,29.88,NNW,338,0.0,0.0,63,0.00,,,0.00,WUHU216HW,2013-09-30 07:36:00,
2013-09-30 02:41:00,68.5,55.4,29.88,NNW,338,0.0,0.0,63,0.00,,,0.00,WUHU216HW,2013-09-30 07:41:00,
2013-09-30 02:46:00,68.5,55.4,29.88,NNW,338,0.0,0.0,63,0.00,,,0.00,WUHU216HW,2013-09-30 07:46:00,
2013-09-30 02:51:00,68.5,55.4,29.88,NNW,338,0.0,0.0,63,0.00,,,0.00,WUHU216HW,2013-09-30 07:51:00,
2013-09-30 02:56:00,68.5,55.4,29.87,NNW,338,0.0,0.0,63,0.00,,,0.00,WUHU216HW,2013-09-30 07:56:00,
2013-09-30 03:01:00,68.3,55.2,29.87,NNW,338,0.0,0.0,63,0.00,,,0.00,WUHU216HW,2013-09-30 08:01:00,
2013-09-30 03:06:00,68.3,55.2,29.87,NNW,338,0.0,0.0,63,0.00,,,0.00,WUHU216HW,2013-09-30 08:06:00,
2013-09-30 03:11:00,68.1,55.4,29.87,NNW,338,0.0,0.0,64,0.00,,,0.00,WUHU216HW,2013-09-30 08:11:00,
2013-09-30 03:16:00,68.1,55.4,29.87,NNW,338,0.0,0.0,64,0.00,,,0.00,WUHU216HW,2013-09-30 08:16:00,
2013-09-30 03:21:00,67.8,55.1,29.87,NNW,338,0.0,0.0,64,0.00,,,0.00,WUHU216HW,2013-09-30 08:21:00,
2013-09-30 03:26:00,67.8,55.5,29.87,NNW,338,0.0,0.0,65,0.00,,,0.00,WUHU216HW,2013-09-30 08:26:00,
2013-09-30 03:31:00,67.6,55.4,29.87,NNW,338,0.0,0.0,65,0.00,,,0.00,WUHU216HW,2013-09-30 08:31:00,
2013-09-30 03:36:00,67.6,55.4,29.87,NNW,338,0.0,0.0,65,0.00,,,0.00,WUHU216HW,2013-09-30 08:36:00,
2013-09-30 03:41:00,67.6,54.9,29.86,NNW,338,0.0,0.0,64,0.00,,,0.00,WUHU216HW,2013-09-30 08:41:00,
2013-09-30 03:46:00,67.2,55.0,29.86,NNW,338,0.0,0.0,65,0.00,,,0.00,WUHU216HW,2013-09-30 08:46:00,
2013-09-30 03:51:00,67.2,55.0,29.86,NNW,338,0.0,0.0,65,0.00,,,0.00,WUHU216HW,2013-09-30 08:51:00,
2013-09-30 03:56:00,67.2,54.6,29.86,NNW,338,0.0,0.0,64,0.00,,,0.00,WUHU216HW,2013-09-30 08:56:00,
2013-09-30 04:01:00,67.2,54.2,29.85,NNW,338,0.0,0.0,63,0.00,,,0.00,WUHU216HW,2013-09-30 09:01:00,
2013-09-30 04:06:00,67.2,54.2,29.86,NNW,338,0.0,0.0,63,0.00,,,0.00,WUHU216HW,2013-09-30 09:06:00,
2013-09-30 04:11:00,67.1,54.0,29.85,NNW,338,0.0,0.0,63,0.00,,,0.00,WUHU216HW,2013-09-30 09:11:00,
2013-09-30 04:16:00,66.9,54.3,29.85,NNW,338,0.0,0.0,64,0.00,,,0.00,WUHU216HW,2013-09-30 09:16:00,
2013-09-30 04:21:00,66.9,54.3,29.85,NNW,338,0.0,0.0,64,0.00,,,0.00,WUHU216HW,2013-09-30 09:21:00,
2013-09-30 04:26:00,66.9,54.3,29.85,NNW,338,0.0,0.0,64,0.00,,,0.00,WUHU216HW,2013-09-30 09:26:00,
2013-09-30 04:31:00,66.9,54.3,29.85,NNW,338,0.0,0.0,64,0.00,,,0.00,WUHU216HW,2013-09-30 09:31:00,
2013-09-30 04:36:00,66.7,54.1,29.86,NNW,338,0.0,0.0,64,0.00,,,0.00,WUHU216HW,2013-09-30 09:36:00,
2013-09-30 04:41:00,67.2,54.6,29.86,NNW,338,0.0,0.0,64,0.00,,,0.00,WUHU216HW,2013-09-30 09:41:00,
2013-09-30 04:46:00,67.8,54.7,29.86,NNW,338,0.0,0.0,63,0.00,,,0.00,WUHU216HW,2013-09-30 09:46:00,
2013-09-30 04:51:00,67.8,54.7,29.86,NNW,338,0.0,0.0,63,0.00,,,0.00,WUHU216HW,2013-09-30 09:51:00,
2013-09-30 04:56:00,68.0,54.8,29.86,NNW,338,0.0,0.0,63,0.00,,,0.00,WUHU216HW,2013-09-30 09:56:00,
2013-09-30 05:01:00,67.1,54.4,29.86,NNW,338,0.0,0.0,64,0.00,,,0.00,WUHU216HW,2013-09-30 10:01:00,
2013-09-30 05:06:00,66.7,54.5,29.86,NNW,338,0.0,0.0,65,0.00,,,0.00,WUHU216HW,2013-09-30 10:06:00,
2013-09-30 05:11:00,66.7,54.5,29.86,NNW,338,0.0,0.0,65,0.00,,,0.00,WUHU216HW,2013-09-30 10:11:00,
2013-09-30 05:17:00,66.7,54.9,29.86,NNW,338,0.0,0.0,66,0.00,,,0.00,WUHU216HW,2013-09-30 10:17:00,
2013-09-30 05:22:00,66.3,54.6,29.86,NNW,338,0.0,0.0,66,0.00,,,0.00,WUHU216HW,2013-09-30 10:22:00,
2013-09-30 05:27:00,66.0,54.6,29.86,NNW,338,0.0,0.0,67,0.00,,,0.00,WUHU216HW,2013-09-30 10:27:00,
2013-09-30 05:32:00,66.2,54.8,29.85,NNW,338,0.0,0.0,67,0.00,,,0.00,WUHU216HW,2013-09-30 10:32:00,
2013-09-30 05:37:00,66.5,55.2,29.86,NNW,338,0.0,0.0,67,0.00,,,0.00,WUHU216HW,2013-09-30 10:37:00,
2013-09-30 05:42:00,66.3,55.0,29.86,NNW,338,0.0,0.0,67,0.00,,,0.00,WUHU216HW,2013-09-30 10:42:00,
2013-09-30 05:47:00,66.5,55.2,29.86,NNW,338,0.0,0.0,67,0.00,,,0.00,WUHU216HW,2013-09-30 10:47:00,
2013-09-30 05:52:00,66.2,54.8,29.86,NNW,338,0.0,0.0,67,0.00,,,0.00,WUHU216HW,2013-09-30 10:52:00,
2013-09-30 05:57:00,66.2,54.8,29.86,NNW,338,0.0,0.0,67,0.00,,,0.00,WUHU216HW,2013-09-30 10:57:00,
2013-09-30 06:02:00,66.0,54.6,29.85,NNW,338,0.0,0.0,67,0.00,,,0.00,WUHU216HW,2013-09-30 11:02:00,
2013-09-30 06:07:00,66.5,55.2,29.85,NNW,338,0.0,0.0,67,0.00,,,0.00,WUHU216HW,2013-09-30 11:07:00,
2013-09-30 06:12:00,66.3,54.6,29.85,NNW,338,0.0,0.0,66,0.00,,,0.00,WUHU216HW,2013-09-30 11:12:00,
2013-09-30 06:17:00,66.0,54.6,29.85,NNW,338,0.0,0.0,67,0.00,,,0.00,WUHU216HW,2013-09-30 11:17:00,
2013-09-30 06:22:00,65.6,54.3,29.85,NNW,338,0.0,0.0,67,0.00,,,0.00,WUHU216HW,2013-09-30 11:22:00,
2013-09-30 06:27:00,65.8,54.5,29.86,NNW,338,0.0,0.0,67,0.00,,,0.00,WUHU216HW,2013-09-30 11:27:00,
2013-09-30 06:32:00,65.4,54.1,29.86,NNW,338,0.0,0.0,67,0.00,,,0.00,WUHU216HW,2013-09-30 11:32:00,
2013-09-30 06:37:00,65.3,54.0,29.85,NNW,338,0.0,0.0,67,0.00,,,0.00,WUHU216HW,2013-09-30 11:37:00,
2013-09-30 06:42:00,65.1,53.8,29.86,NNW,338,0.0,0.0,67,0.00,,,0.00,WUHU216HW,2013-09-30 11:42:00,
2013-09-30 06:47:00,64.9,54.1,29.86,NNW,338,0.0,0.0,68,0.00,,,0.00,WUHU216HW,2013-09-30 11:47:00,
2013-09-30 06:52:00,64.9,54.1,29.87,NNW,338,0.0,0.0,68,0.00,,,0.00,WUHU216HW,2013-09-30 11:52:00,
2013-09-30 06:57:00,64.7,53.9,29.86,NNW,338,0.0,0.0,68,0.00,,,0.00,WUHU216HW,2013-09-30 11:57:00,
2013-09-30 07:02:00,64.9,54.1,29.86,NNW,338,0.0,0.0,68,0.00,,,0.00,WUHU216HW,2013-09-30 12:02:00,
2013-09-30 07:07:00,64.5,54.2,29.87,NNW,338,0.0,0.0,69,0.00,,,0.00,WUHU216HW,2013-09-30 12:07:00,
2013-09-30 07:12:00,64.5,53.7,29.86,NNW,338,0.0,0.0,68,0.00,,,0.00,WUHU216HW,2013-09-30 12:12:00,
2013-09-30 07:17:00,64.5,53.7,29.87,NNW,338,0.0,0.0,68,0.00,,,0.00,WUHU216HW,2013-09-30 12:17:00,
2013-09-30 07:22:00,64.5,54.2,29.87,NNW,338,0.0,0.0,69,0.00,,,0.00,WUHU216HW,2013-09-30 12:22:00,
2013-09-30 07:27:00,64.5,54.2,29.86,NNW,338,0.0,0.0,69,0.00,,,0.00,WUHU216HW,2013-09-30 12:27:00,
2013-09-30 07:32:00,64.5,54.6,29.86,NNW,338,0.0,0.0,70,0.00,,,0.00,WUHU216HW,2013-09-30 12:32:00,
2013-09-30 07:37:00,64.5,54.6,29.86,NNW,338,0.0,0.0,70,0.00,,,0.00,WUHU216HW,2013-09-30 12:37:00,
2013-09-30 07:42:00,64.5,54.6,29.86,NNW,338,0.0,0.0,70,0.00,,,0.00,WUHU216HW,2013-09-30 12:42:00,
2013-09-30 07:47:00,64.5,54.6,29.87,NNW,338,0.0,0.0,70,0.00,,,0.00,WUHU216HW,2013-09-30 12:47:00,
2013-09-30 07:52:00,64.4,54.5,29.86,NNW,338,0.0,0.0,70,0.00,,,0.00,WUHU216HW,2013-09-30 12:52:00,
2013-09-30 07:57:00,64.4,54.8,29.87,NNW,338,0.0,0.0,71,0.00,,,0.00,WUHU216HW,2013-09-30 12:57:00,
2013-09-30 08:02:00,64.5,55.0,29.87,NNW,338,0.0,0.0,71,0.00,,,0.00,WUHU216HW,2013-09-30 13:02:00,
2013-09-30 08:07:00,64.7,55.1,29.87,NNW,338,0.0,0.0,71,0.00,,,0.00,WUHU216HW,2013-09-30 13:07:00,
2013-09-30 08:12:00,64.9,55.3,29.87,NNW,338,0.0,0.0,71,0.00,,,0.00,WUHU216HW,2013-09-30 13:12:00,
2013-09-30 08:17:00,65.1,55.5,29.87,NNW,338,0.0,0.0,71,0.00,,,0.00,WUHU216HW,2013-09-30 13:17:00,
2013-09-30 08:22:00,65.6,55.9,29.87,NNW,338,0.0,0.0,71,0.00,,,0.00,WUHU216HW,2013-09-30 13:22:00,
2013-09-30 08:27:00,65.8,56.1,29.87,NNW,338,0.0,0.0,71,0.00,,,0.00,WUHU216HW,2013-09-30 13:27:00,
2013-09-30 08:32:00,66.0,56.3,29.87,NNW,338,0.0,0.0,71,0.00,,,0.00,WUHU216HW,2013-09-30 13:32:00,
2013-09-30 08:37:00,66.5,57.2,29.87,NNW,338,0.0,0.0,72,0.00,,,0.00,WUHU216HW,2013-09-30 13:37:00,
2013-09-30 08:42:00,66.7,57.4,29.87,NNW,338,0.0,0.0,72,0.00,,,0.00,WUHU216HW,2013-09-30 13:42:00,
2013-09-30 08:47:00,66.7,57.4,29.86,NNW,338,0.0,0.0,72,0.00,,,0.00,WUHU216HW,2013-09-30 13:47:00,
2013-09-30 08:52:00,67.2,57.9,29.87,NNW,338,0.0,0.0,72,0.00,,,0.00,WUHU216HW,2013-09-30 13:52:00,
2013-09-30 08:57:00,67.6,57.9,29.87,NNW,338,0.0,0.0,71,0.00,,,0.00,WUHU216HW,2013-09-30 13:57:00,
2013-09-30 09:02:00,67.8,58.1,29.87,NNW,338,0.0,0.0,71,0.00,,,0.00,WUHU216HW,2013-09-30 14:02:00,
2013-09-30 09:07:00,68.1,58.0,29.87,NNW,338,0.0,0.0,70,0.00,,,0.00,WUHU216HW,2013-09-30 14:07:00,
2013-09-30 09:15:00,68.1,58.0,29.87,NNW,338,0.0,0.0,70,0.00,,,0.00,WUHU216HW,2013-09-30 14:15:00,
2013-09-30 09:25:00,68.7,58.1,29.87,NNW,338,0.0,0.0,69,0.00,,,0.00,WUHU216HW,2013-09-30 14:25:00,
2013-09-30 09:30:00,69.6,58.1,29.87,NNW,338,0.0,0.0,67,0.00,,,0.00,WUHU216HW,2013-09-30 14:30:00,
2013-09-30 09:35:00,69.9,58.0,29.87,NNW,338,0.0,0.0,66,0.00,,,0.00,WUHU216HW,2013-09-30 14:35:00,
2013-09-30 09:40:00,70.3,57.1,29.87,NNW,338,0.0,0.0,64,0.00,,,0.00,WUHU216HW,2013-09-30 14:40:00,
2013-09-30 09:45:00,70.7,56.6,29.87,NNW,338,0.0,0.0,61,0.00,,,0.00,WUHU216HW,2013-09-30 14:45:00,
2013-09-30 09:50:00,70.8,56.7,29.87,NNW,338,0.0,0.0,61,0.00,,,0.00,WUHU216HW,2013-09-30 14:50:00,
2013-09-30 09:55:00,71.2,56.6,29.87,SE,135,0.0,0.0,60,0.00,,,0.00,WUHU216HW,2013-09-30 14:55:00,
2013-09-30 10:00:00,71.6,57.0,29.87,SE,135,0.0,0.0,60,0.00,,,0.00,WUHU216HW,2013-09-30 15:00:00,
2013-09-30 10:05:00,71.9,55.8,29.87,SE,135,0.0,0.0,57,0.00,,,0.00,WUHU216HW,2013-09-30 15:05:00,
2013-09-30 10:10:00,72.3,56.1,29.87,SE,135,0.0,0.0,57,0.00,,,0.00,WUHU216HW,2013-09-30 15:10:00,
2013-09-30 10:16:00,72.5,56.3,29.87,SE,135,0.0,0.0,57,0.00,,,0.00,WUHU216HW,2013-09-30 15:16:00,
2013-09-30 10:21:00,73.0,56.3,29.87,SE,135,0.0,0.0,56,0.00,,,0.00,WUHU216HW,2013-09-30 15:21:00,
2013-09-30 10:26:00,73.2,55.9,29.87,SE,135,0.0,0.0,55,0.00,,,0.00,WUHU216HW,2013-09-30 15:26:00,
2013-09-30 10:31:00,73.5,56.3,29.87,SE,135,0.0,0.0,55,0.00,,,0.00,WUHU216HW,2013-09-30 15:31:00,
2013-09-30 10:36:00,74.1,56.8,29.87,SE,135,0.0,0.0,55,0.00,,,0.00,WUHU216HW,2013-09-30 15:36:00,
2013-09-30 10:41:00,74.1,56.3,29.87,SE,135,0.0,0.0,54,0.00,,,0.00,WUHU216HW,2013-09-30 15:41:00,
2013-09-30 10:46:00,74.8,57.0,29.87,SE,135,0.0,0.0,54,0.00,,,0.00,WUHU216HW,2013-09-30 15:46:00,
2013-09-30 10:51:00,75.0,56.2,29.87,SSE,158,0.0,0.0,52,0.00,,,0.00,WUHU216HW,2013-09-30 15:51:00,
2013-09-30 10:56:00,75.5,57.2,29.87,SSE,158,0.0,0.0,53,0.00,,,0.00,WUHU216HW,2013-09-30 15:56:00,
2013-09-30 11:01:00,75.7,56.8,29.87,SSE,158,0.0,0.0,52,0.00,,,0.00,WUHU216HW,2013-09-30 16:01:00,
2013-09-30 11:06:00,76.1,56.2,29.87,SSE,158,0.0,0.0,50,0.00,,,0.00,WUHU216HW,2013-09-30 16:06:00,
2013-09-30 11:11:00,76.4,55.9,29.88,SSE,158,0.0,0.0,49,0.00,,,0.00,WUHU216HW,2013-09-30 16:11:00,
2013-09-30 11:16:00,76.8,55.6,29.88,SSE,158,0.0,0.0,48,0.00,,,0.00,WUHU216HW,2013-09-30 16:16:00,
2013-09-30 11:21:00,77.3,54.8,29.87,SSE,158,0.0,0.0,46,0.00,,,0.00,WUHU216HW,2013-09-30 16:21:00,
2013-09-30 11:26:00,77.7,55.8,29.87,South,180,0.0,0.0,47,0.00,,,0.00,WUHU216HW,2013-09-30 16:26:00,
2013-09-30 11:31:00,77.9,56.6,29.87,South,180,0.0,0.0,48,0.00,,,0.00,WUHU216HW,2013-09-30 16:31:00,
2013-09-30 11:36:00,78.6,55.4,29.87,SSE,158,0.0,0.0,45,0.00,,,0.00,WUHU216HW,2013-09-30 16:36:00,
2013-09-30 11:41:00,78.4,55.8,29.87,SSE,158,0.0,0.0,46,0.00,,,0.00,WUHU216HW,2013-09-30 16:41:00,
2013-09-30 11:46:00,78.8,56.8,29.87,SSE,158,0.0,0.0,47,0.00,,,0.00,WUHU216HW,2013-09-30 16:46:00,
2013-09-30 11:51:00,79.3,56.6,29.87,SSW,203,0.0,0.0,46,0.00,,,0.00,WUHU216HW,2013-09-30 16:51:00,
2013-09-30 11:56:00,79.8,57.1,29.87,South,180,0.0,0.0,46,0.00,,,0.00,WUHU216HW,2013-09-30 16:56:00,
2013-09-30 12:01:00,80.2,56.8,29.87,South,180,0.0,0.0,45,0.00,,,0.00,WUHU216HW,2013-09-30 17:01:00,
2013-09-30 12:06:00,80.4,57.0,29.87,South,180,0.0,0.0,45,0.00,,,0.00,WUHU216HW,2013-09-30 17:06:00,
2013-09-30 12:11:00,80.6,57.2,29.86,South,180,0.0,0.0,45,0.00,,,0.00,WUHU216HW,2013-09-30 17:11:00,
2013-09-30 12:17:00,81.1,55.8,29.86,SSE,158,0.0,0.0,42,0.00,,,0.00,WUHU216HW,2013-09-30 17:17:00,
2013-09-30 12:22:00,81.6,55.7,29.86,SE,135,0.0,0.0,41,0.00,,,0.00,WUHU216HW,2013-09-30 17:22:00,
2013-09-30 12:26:00,82.2,55.5,29.86,SSE,158,0.0,0.0,40,0.00,,,0.00,WUHU216HW,2013-09-30 17:26:00,
2013-09-30 12:31:00,82.7,56.0,29.86,SSE,158,0.0,0.0,40,0.00,,,0.00,WUHU216HW,2013-09-30 17:31:00,
2013-09-30 12:36:00,83.1,54.8,29.86,SE,135,0.0,0.0,38,0.00,,,0.00,WUHU216HW,2013-09-30 17:36:00,
2013-09-30 12:41:00,83.8,55.4,29.86,ENE,68,0.0,0.0,38,0.00,,,0.00,WUHU216HW,2013-09-30 17:41:00,
2013-09-30 12:46:00,83.8,55.4,29.86,ENE,68,0.0,0.0,38,0.00,,,0.00,WUHU216HW,2013-09-30 17:46:00,
2013-09-30 12:51:00,83.8,55.4,29.86,NW,315,0.0,0.0,38,0.00,,,0.00,WUHU216HW,2013-09-30 17:51:00,
2013-09-30 12:56:00,84.0,56.4,29.86,West,270,0.0,0.0,39,0.00,,,0.00,WUHU216HW,2013-09-30 17:56:00,
2013-09-30 13:01:00,84.5,55.3,29.85,SSW,203,0.0,0.0,37,0.00,,,0.00,WUHU216HW,2013-09-30 18:01:00,
2013-09-30 13:06:00,84.7,56.2,29.85,South,180,0.0,0.0,38,0.00,,,0.00,WUHU216HW,2013-09-30 18:06:00,
2013-09-30 13:11:00,85.2,55.9,29.85,South,180,0.0,0.0,37,0.00,,,0.00,WUHU216HW,2013-09-30 18:11:00,
2013-09-30 13:16:00,85.6,56.3,29.84,SW,225,0.0,0.0,37,0.00,,,0.00,WUHU216HW,2013-09-30 18:16:00,
2013-09-30 13:21:00,85.2,55.9,29.84,SSW,203,0.0,0.0,37,0.00,,,0.00,WUHU216HW,2013-09-30 18:21:00,
2013-09-30 13:26:00,85.6,55.5,29.84,SSE,158,0.0,0.0,36,0.00,,,0.00,WUHU216HW,2013-09-30 18:26:00,
2013-09-30 13:31:00,86.1,55.9,29.84,South,180,0.0,0.0,36,0.00,,,0.00,WUHU216HW,2013-09-30 18:31:00,
2013-09-30 13:36:00,86.5,55.4,29.83,SSE,158,0.0,0.0,35,0.00,,,0.00,WUHU216HW,2013-09-30 18:36:00,
2013-09-30 13:41:00,86.3,55.3,29.83,SSE,158,0.0,0.0,35,0.00,,,0.00,WUHU216HW,2013-09-30 18:41:00,
2013-09-30 13:46:00,86.5,55.4,29.83,SE,135,0.0,0.0,35,0.00,,,0.00,WUHU216HW,2013-09-30 18:46:00,
2013-09-30 13:51:00,86.5,53.8,29.83,SW,225,0.0,0.0,33,0.00,,,0.00,WUHU216HW,2013-09-30 18:51:00,
2013-09-30 13:57:00,86.3,53.7,29.82,SE,135,0.0,3.8,33,0.00,,,0.00,WUHU216HW,2013-09-30 18:57:00,
2013-09-30 14:02:00,86.5,54.6,29.82,East,90,0.0,3.8,34,0.00,,,0.00,WUHU216HW,2013-09-30 19:02:00,
2013-09-30 14:07:00,86.5,54.6,29.82,SE,135,0.0,0.0,34,0.00,,,0.00,WUHU216HW,2013-09-30 19:07:00,
2013-09-30 14:12:00,86.1,53.6,29.81,SSE,158,0.0,0.0,33,0.00,,,0.00,WUHU216HW,2013-09-30 19:12:00,
2013-09-30 14:17:00,85.6,53.1,29.81,South,180,0.0,0.0,33,0.00,,,0.00,WUHU216HW,2013-09-30 19:17:00,
2013-09-30 14:21:00,85.2,52.0,29.82,SSE,158,0.0,0.0,32,0.00,,,0.00,WUHU216HW,2013-09-30 19:21:00,
2013-09-30 14:26:00,84.7,52.3,29.81,SSE,158,0.0,0.0,33,0.00,,,0.00,WUHU216HW,2013-09-30 19:26:00,
2013-09-30 14:31:00,84.7,52.3,29.81,SSW,203,0.0,0.0,33,0.00,,,0.00,WUHU216HW,2013-09-30 19:31:00,
2013-09-30 14:36:00,84.5,52.1,29.81,South,180,0.6,0.6,33,0.00,,,0.00,WUHU216HW,2013-09-30 19:36:00,
2013-09-30 14:41:00,84.5,52.1,29.81,ESE,113,0.0,0.6,33,0.00,,,0.00,WUHU216HW,2013-09-30 19:41:00,
2013-09-30 14:46:00,84.5,52.1,29.81,South,180,0.0,0.0,33,0.00,,,0.00,WUHU216HW,2013-09-30 19:46:00,
2013-09-30 14:52:00,84.3,52.7,29.80,SSW,203,0.0,0.0,34,0.00,,,0.00,WUHU216HW,2013-09-30 19:52:00,
2013-09-30 14:57:00,84.3,52.7,29.79,SSW,203,0.0,0.0,34,0.00,,,0.00,WUHU216HW,2013-09-30 19:57:00,
2013-09-30 15:02:00,84.3,51.9,29.80,SSE,158,0.0,0.0,33,0.00,,,0.00,WUHU216HW,2013-09-30 20:02:00,
2013-09-30 15:07:00,84.3,51.9,29.79,SE,135,0.0,0.0,33,0.00,,,0.00,WUHU216HW,2013-09-30 20:07:00,
2013-09-30 15:12:00,84.3,51.2,29.80,SSE,158,0.6,0.6,32,0.00,,,0.00,WUHU216HW,2013-09-30 20:12:00,
2013-09-30 15:17:00,84.5,51.3,29.79,SSE,158,0.0,0.6,32,0.00,,,0.00,WUHU216HW,2013-09-30 20:17:00,
2013-09-30 15:22:00,84.5,51.3,29.79,East,90,0.0,3.8,32,0.00,,,0.00,WUHU216HW,2013-09-30 20:22:00,
2013-09-30 15:27:00,84.3,51.9,29.79,ESE,113,1.1,3.8,33,0.00,,,0.00,WUHU216HW,2013-09-30 20:27:00,
2013-09-30 15:32:00,84.7,52.3,29.79,SSE,158,0.0,1.1,33,0.00,,,0.00,WUHU216HW,2013-09-30 20:32:00,
2013-09-30 15:37:00,84.7,51.5,29.79,SSE,158,0.0,1.1,32,0.00,,,0.00,WUHU216HW,2013-09-30 20:37:00,
2013-09-30 15:42:00,84.7,52.3,29.79,ESE,113,0.0,0.0,33,0.00,,,0.00,WUHU216HW,2013-09-30 20:42:00,
2013-09-30 15:47:00,84.5,51.3,29.79,SSE,158,0.0,0.0,32,0.00,,,0.00,WUHU216HW,2013-09-30 20:47:00,
2013-09-30 15:52:00,84.7,51.5,29.78,SE,135,0.0,0.0,32,0.00,,,0.00,WUHU216HW,2013-09-30 20:52:00,
2013-09-30 15:57:00,84.7,51.5,29.78,SE,135,0.0,4.0,32,0.00,,,0.00,WUHU216HW,2013-09-30 20:57:00,
2013-09-30 16:02:00,84.5,51.3,29.78,South,180,0.0,4.0,32,0.00,,,0.00,WUHU216HW,2013-09-30 21:02:00,
2013-09-30 16:07:00,84.3,51.2,29.78,East,90,0.0,0.0,32,0.00,,,0.00,WUHU216HW,2013-09-30 21:07:00,
2013-09-30 16:12:00,84.3,51.9,29.78,SSW,203,0.0,7.3,33,0.00,,,0.00,WUHU216HW,2013-09-30 21:12:00,
2013-09-30 16:17:00,84.3,51.9,29.78,East,90,0.0,7.3,33,0.00,,,0.00,WUHU216HW,2013-09-30 21:17:00,
2013-09-30 16:22:00,84.5,52.1,29.79,SSE,158,0.0,3.1,33,0.00,,,0.00,WUHU216HW,2013-09-30 21:22:00,
2013-09-30 16:27:00,84.5,52.1,29.79,SSE,158,0.0,3.1,33,0.00,,,0.00,WUHU216HW,2013-09-30 21:27:00,
2013-09-30 16:32:00,84.5,52.9,29.79,SSE,158,0.0,0.0,34,0.00,,,0.00,WUHU216HW,2013-09-30 21:32:00,
2013-09-30 16:37:00,84.7,52.3,29.79,South,180,3.5,3.5,33,0.00,,,0.00,WUHU216HW,2013-09-30 21:37:00,
2013-09-30 16:42:00,84.7,52.3,29.79,SE,135,0.0,4.2,33,0.00,,,0.00,WUHU216HW,2013-09-30 21:42:00,
2013-09-30 16:47:00,84.7,52.3,29.79,SSE,158,0.0,4.2,33,0.00,,,0.00,WUHU216HW,2013-09-30 21:47:00,
2013-09-30 16:52:00,84.9,52.4,29.79,SW,225,0.0,4.0,33,0.00,,,0.00,WUHU216HW,2013-09-30 21:52:00,
2013-09-30 16:57:00,84.9,52.4,29.79,South,180,0.0,5.1,33,0.00,,,0.00,WUHU216HW,2013-09-30 21:57:00,
2013-09-30 17:02:00,85.2,52.8,29.79,SSW,203,0.0,5.1,33,0.00,,,0.00,WUHU216HW,2013-09-30 22:02:00,
2013-09-30 17:07:00,85.2,52.8,29.78,SSE,158,2.0,2.0,33,0.00,,,0.00,WUHU216HW,2013-09-30 22:07:00,
2013-09-30 17:12:00,85.8,53.2,29.79,South,180,0.0,2.0,33,0.00,,,0.00,WUHU216HW,2013-09-30 22:12:00,
2013-09-30 17:17:00,86.1,52.8,29.78,SE,135,0.0,0.0,32,0.00,,,0.00,WUHU216HW,2013-09-30 22:17:00,
2013-09-30 17:22:00,85.8,52.5,29.78,South,180,0.0,0.0,32,0.00,,,0.00,WUHU216HW,2013-09-30 22:22:00,
2013-09-30 17:27:00,85.8,52.5,29.79,East,90,5.8,5.8,32,0.00,,,0.00,WUHU216HW,2013-09-30 22:27:00,
2013-09-30 17:32:00,85.6,53.1,29.79,SSW,203,3.3,5.8,33,0.00,,,0.00,WUHU216HW,2013-09-30 22:32:00,
2013-09-30 17:37:00,85.2,52.8,29.78,SSE,158,0.0,5.8,33,0.00,,,0.00,WUHU216HW,2013-09-30 22:37:00,
2013-09-30 17:42:00,84.9,52.4,29.78,SSW,203,0.0,1.7,33,0.00,,,0.00,WUHU216HW,2013-09-30 22:42:00,
2013-09-30 17:47:00,84.9,53.2,29.78,SSE,158,0.0,0.0,34,0.00,,,0.00,WUHU216HW,2013-09-30 22:47:00,
2013-09-30 17:52:00,84.9,53.2,29.79,SSE,158,0.4,0.4,34,0.00,,,0.00,WUHU216HW,2013-09-30 22:52:00,
2013-09-30 17:57:00,84.7,53.9,29.79,SSE,158,0.2,0.4,35,0.00,,,0.00,WUHU216HW,2013-09-30 22:57:00,
2013-09-30 18:02:00,84.7,53.9,29.79,SSW,203,0.0,0.2,35,0.00,,,0.00,WUHU216HW,2013-09-30 23:02:00,
2013-09-30 18:07:00,84.7,53.9,29.79,SSW,203,0.0,0.2,35,0.00,,,0.00,WUHU216HW,2013-09-30 23:07:00,
2013-09-30 18:12:00,84.5,53.7,29.78,South,180,1.5,1.5,35,0.00,,,0.00,WUHU216HW,2013-09-30 23:12:00,
2013-09-30 18:17:00,84.3,54.3,29.79,SSE,158,0.0,1.5,36,0.00,,,0.00,WUHU216HW,2013-09-30 23:17:00,
2013-09-30 18:22:00,84.3,53.5,29.79,SSW,203,0.0,1.5,35,0.00,,,0.00,WUHU216HW,2013-09-30 23:22:00,
2013-09-30 18:27:00,84.2,53.4,29.79,South,180,2.2,2.2,35,0.00,,,0.00,WUHU216HW,2013-09-30 23:27:00,
2013-09-30 18:32:00,84.0,54.0,29.79,SSW,203,0.0,2.2,36,0.00,,,0.00,WUHU216HW,2013-09-30 23:32:00,
2013-09-30 18:37:00,83.8,54.6,29.79,South,180,0.0,2.2,37,0.00,,,0.00,WUHU216HW,2013-09-30 23:37:00,
2013-09-30 18:42:00,83.4,55.1,29.79,SSE,158,0.0,0.0,38,0.00,,,0.00,WUHU216HW,2013-09-30 23:42:00,
2013-09-30 18:47:00,83.3,55.7,29.79,South,180,0.0,0.0,39,0.00,,,0.00,WUHU216HW,2013-09-30 23:47:00,
2013-09-30 18:52:00,82.9,56.2,29.79,South,180,0.0,0.0,40,0.00,,,0.00,WUHU216HW,2013-09-30 23:52:00,
2013-09-30 18:57:00,82.7,56.0,29.79,SSE,158,1.3,1.3,40,0.00,,,0.00,WUHU216HW,2013-09-30 23:57:00,
2013-09-30 19:02:00,82.5,55.9,29.80,SSE,158,0.0,1.3,40,0.00,,,0.00,WUHU216HW,2013-10-01 00:02:00,
2013-09-30 19:07:00,82.5,56.5,29.79,SSE,158,0.0,1.3,41,0.00,,,0.00,WUHU216HW,2013-10-01 00:07:00,
2013-09-30 19:12:00,82.2,56.8,29.79,SSE,158,0.0,0.0,42,0.00,,,0.00,WUHU216HW,2013-10-01 00:12:00,
2013-09-30 19:17:00,82.0,56.6,29.79,South,180,0.0,0.0,42,0.00,,,0.00,WUHU216HW,2013-10-01 00:17:00,
2013-09-30 19:22:00,81.6,56.9,29.79,South,180,0.0,0.0,43,0.00,,,0.00,WUHU216HW,2013-10-01 00:22:00,
2013-09-30 19:27:00,81.6,57.5,29.79,South,180,0.0,0.0,44,0.00,,,0.00,WUHU216HW,2013-10-01 00:27:00,
2013-09-30 19:32:00,81.3,57.8,29.79,South,180,0.0,0.0,45,0.00,,,0.00,WUHU216HW,2013-10-01 00:32:00,
2013-09-30 19:37:00,81.1,57.6,29.80,South,180,0.0,0.0,45,0.00,,,0.00,WUHU216HW,2013-10-01 00:37:00,
2013-09-30 19:42:00,80.9,58.1,29.80,South,180,0.0,0.0,46,0.00,,,0.00,WUHU216HW,2013-10-01 00:42:00,
2013-09-30 19:47:00,80.7,57.9,29.80,South,180,0.0,0.0,46,0.00,,,0.00,WUHU216HW,2013-10-01 00:47:00,
2013-09-30 19:52:00,80.4,58.2,29.80,South,180,0.0,0.0,47,0.00,,,0.00,WUHU216HW,2013-10-01 00:52:00,
2013-09-30 19:57:00,80.4,58.2,29.80,South,180,0.0,0.0,47,0.00,,,0.00,WUHU216HW,2013-10-01 00:57:00,
2013-09-30 20:02:00,80.4,58.8,29.80,South,180,0.0,0.0,48,0.00,,,0.00,WUHU216HW,2013-10-01 01:02:00,
2013-09-30 20:07:00,80.2,59.3,29.80,South,180,0.0,0.0,49,0.00,,,0.00,WUHU216HW,2013-10-01 01:07:00,
2013-09-30 20:12:00,79.8,59.0,29.80,South,180,0.0,0.0,49,0.00,,,0.00,WUHU216HW,2013-10-01 01:12:00,
2013-09-30 20:17:00,79.7,58.8,29.80,South,180,0.0,0.0,49,0.00,,,0.00,WUHU216HW,2013-10-01 01:17:00,
2013-09-30 20:22:00,79.5,59.2,29.80,South,180,0.0,0.0,50,0.00,,,0.00,WUHU216HW,2013-10-01 01:22:00,
2013-09-30 20:27:00,79.5,59.2,29.80,South,180,0.0,0.0,50,0.00,,,0.00,WUHU216HW,2013-10-01 01:27:00,
2013-09-30 20:32:00,79.3,59.1,29.80,South,180,0.0,0.0,50,0.00,,,0.00,WUHU216HW,2013-10-01 01:32:00,
2013-09-30 20:37:00,79.1,59.4,29.80,South,180,0.0,0.0,51,0.00,,,0.00,WUHU216HW,2013-10-01 01:37:00,
2013-09-30 20:42:00,78.9,59.3,29.81,South,180,0.0,0.0,51,0.00,,,0.00,WUHU216HW,2013-10-01 01:42:00,
2013-09-30 20:47:00,78.9,59.3,29.81,South,180,0.0,0.0,51,0.00,,,0.00,WUHU216HW,2013-10-01 01:47:00,
2013-09-30 20:52:00,78.6,59.5,29.81,South,180,0.0,0.0,52,0.00,,,0.00,WUHU216HW,2013-10-01 01:52:00,
2013-09-30 20:57:00,78.6,59.5,29.81,South,180,0.0,0.0,52,0.00,,,0.00,WUHU216HW,2013-10-01 01:57:00,
2013-09-30 21:03:00,78.6,59.5,29.81,South,180,0.0,0.0,52,0.00,,,0.00,WUHU216HW,2013-10-01 02:03:00,
2013-09-30 21:08:00,78.6,60.0,29.81,South,180,0.0,0.0,53,0.00,,,0.00,WUHU216HW,2013-10-01 02:08:00,
2013-09-30 21:13:00,78.6,60.0,29.81,South,180,0.0,0.0,53,0.00,,,0.00,WUHU216HW,2013-10-01 02:13:00,
2013-09-30 21:18:00,78.4,60.3,29.82,South,180,0.0,0.0,54,0.00,,,0.00,WUHU216HW,2013-10-01 02:18:00,
2013-09-30 21:23:00,78.0,60.0,29.82,South,180,0.0,0.0,54,0.00,,,0.00,WUHU216HW,2013-10-01 02:23:00,
2013-09-30 21:28:00,78.0,60.5,29.82,South,180,0.0,0.0,55,0.00,,,0.00,WUHU216HW,2013-10-01 02:28:00,
2013-09-30 21:34:00,78.0,60.5,29.82,South,180,0.0,0.0,55,0.00,,,0.00,WUHU216HW,2013-10-01 02:34:00,
2013-09-30 21:39:00,77.9,60.3,29.82,South,180,0.0,0.0,55,0.00,,,0.00,WUHU216HW,2013-10-01 02:39:00,
2013-09-30 21:44:00,77.9,60.9,29.82,South,180,0.0,0.0,56,0.00,,,0.00,WUHU216HW,2013-10-01 02:44:00,
2013-09-30 21:49:00,77.9,60.9,29.82,South,180,0.0,0.0,56,0.00,,,0.00,WUHU216HW,2013-10-01 02:49:00,
2013-09-30 21:54:00,77.9,60.9,29.82,South,180,0.0,0.0,56,0.00,,,0.00,WUHU216HW,2013-10-01 02:54:00,
2013-09-30 21:59:00,77.7,60.7,29.82,SSW,203,0.0,0.0,56,0.00,,,0.00,WUHU216HW,2013-10-01 02:59:00,
2013-09-30 22:04:00,77.7,61.2,29.83,SSW,203,0.0,0.0,57,0.00,,,0.00,WUHU216HW,2013-10-01 03:04:00,
2013-09-30 22:09:00,77.7,61.2,29.83,SSW,203,0.0,0.0,57,0.00,,,0.00,WUHU216HW,2013-10-01 03:09:00,
2013-09-30 22:14:00,77.7,61.2,29.82,South,180,0.0,0.0,57,0.00,,,0.00,WUHU216HW,2013-10-01 03:14:00,
2013-09-30 22:19:00,77.7,61.2,29.82,South,180,0.0,0.0,57,0.00,,,0.00,WUHU216HW,2013-10-01 03:19:00,
2013-09-30 22:24:00,77.7,61.7,29.83,South,180,0.0,0.0,58,0.00,,,0.00,WUHU216HW,2013-10-01 03:24:00,
2013-09-30 22:29:00,77.7,61.7,29.82,South,180,0.0,0.0,58,0.00,,,0.00,WUHU216HW,2013-10-01 03:29:00,
2013-09-30 22:34:00,77.7,61.7,29.82,South,180,0.0,0.0,58,0.00,,,0.00,WUHU216HW,2013-10-01 03:34:00,
2013-09-30 22:39:00,77.5,62.0,29.82,South,180,0.0,0.0,59,0.00,,,0.00,WUHU216HW,2013-10-01 03:39:00,
2013-09-30 22:44:00,77.3,61.8,29.83,South,180,0.0,0.0,59,0.00,,,0.00,WUHU216HW,2013-10-01 03:44:00,
2013-09-30 22:49:00,77.1,61.7,29.82,South,180,0.0,0.0,59,0.00,,,0.00,WUHU216HW,2013-10-01 03:49:00,
2013-09-30 22:54:00,77.0,62.0,29.82,South,180,0.0,0.0,60,0.00,,,0.00,WUHU216HW,2013-10-01 03:54:00,
2013-09-30 22:59:00,77.0,62.0,29.82,South,180,0.0,0.0,60,0.00,,,0.00,WUHU216HW,2013-10-01 03:59:00,
2013-09-30 23:01:00,76.8,62.3,29.82,South,180,0.0,0.0,61,0.00,,,0.00,WUHU216HW,2013-10-01 04:01:00,
2013-09-30 23:06:00,76.8,62.3,29.82,South,180,0.0,0.0,61,0.00,,,0.00,WUHU216HW,2013-10-01 04:06:00,
2013-09-30 23:11:00,76.6,62.1,29.82,South,180,0.0,0.0,61,0.00,,,0.00,WUHU216HW,2013-10-01 04:11:00,
2013-09-30 23:16:00,76.4,62.0,29.82,South,180,0.0,0.0,61,0.00,,,0.00,WUHU216HW,2013-10-01 04:16:00,
2013-09-30 23:21:00,76.4,62.0,29.82,South,180,0.0,0.0,61,0.00,,,0.00,WUHU216HW,2013-10-01 04:21:00,
2013-09-30 23:26:00,76.2,61.8,29.82,South,180,0.0,0.0,61,0.00,,,0.00,WUHU216HW,2013-10-01 04:26:00,
2013-09-30 23:32:00,76.2,61.8,29.82,SSE,158,0.0,0.0,61,0.00,,,0.00,WUHU216HW,2013-10-01 04:32:00,
2013-09-30 23:37:00,76.2,61.8,29.82,SE,135,0.0,0.0,61,0.00,,,0.00,WUHU216HW,2013-10-01 04:37:00,
2013-09-30 23:42:00,76.4,62.0,29.81,SE,135,0.0,0.0,61,0.00,,,0.00,WUHU216HW,2013-10-01 04:42:00,
2013-09-30 23:47:00,76.2,61.8,29.81,SSE,158,0.0,0.0,61,0.00,,,0.00,WUHU216HW,2013-10-01 04:47:00,
2013-09-30 23:52:00,76.2,62.2,29.81,SSE,158,0.0,0.0,62,0.00,,,0.00,WUHU216HW,2013-10-01 04:52:00,
2013-09-30 23:57:00,76.1,62.1,29.81,SSE,158,0.0,0.0,62,0.00,,,0.00,WUHU216HW,2013-10-01 04:57:00,